STARLINK-32402, 61708

Orbit data source: Space-Track

STARLINK-32402, 61708 is a payload satellite owned by SpaceX/Seattle (US) in LEO that was launched on Wed, 30 Oct 2024 UTC via an FALCON 9 launch vehicle from the Air Force Eastern Test Range (AFETR). Payload-class satellites include a variety of spacecraft equipped with specific instruments for various scientific and technological missions. These include communications satellites like Starlink; space stations such as the ISS; scientific satellites like the Hubble; Earth observation satellites from companies like Planet Labs, Umbra, and HawkEye 360; GPS; miniature CubeSats for education and research; and military/defense satellites.

Loading next visibility...
Identifier
61708, 2024-196B
Orbit
LEO
Country
Flag of USUS
Related business
Manufacturer
SpaceX/Seattle
Mission
Operational Commercial Communications
Bus & Motor
STARLINK V2M, Unknown motor
Mass
730 kg wet, ~700 kg dry
Launch date (UTC)
2024-10-30 (2 years ago)
Launch vehicle
FALCON 9
Launch site
Air Force Eastern Test Range (AFETR)
Object type
Payload
Rocket body
Debris
Shape & HBR
Box + 2 Pan, 17.7 m
Radar Cross Section
33.884 m², Large (>1 m²)

Expand to show TLE details & history
Last TLE update: 22 hours ago

TLE from 22 hours ago
0 STARLINK-32402
1 61708U 24196B   26227.00987394  .00012057  00000-0  36762-3 0  9995
2 61708  53.1592  84.0160 0001284  99.0175 261.0973 15.34380184101427
Epoch: 2026-08-15T00:14Z
TLE epoch observation values (Epoch: 2026-08-15T00:14:13.108Z)
Latitude
-0.00001°
Longitude
117.03448°
Altitude
463.799 km
Speed
7.636 km/s
True Right ascension
05h 36m 03s
True Declination
0° 00' 00"
Sunlit
Object was in daylight at epoch
Visualization orbit readout
Latitude
Unknown
Longitude
Unknown
Altitude
Unknown
Speed
Unknown
Apparent Right ascension
Unknown
Apparent Declination
Unknown
Sunlit
N/A
Visualization observer readout
Local Sidereal Time
13:17:33
Azimuth
Unknown
Elevation
Unknown
Doppler factor
Unknown
Orbital elements
Apogee altitude
463.898 km
Perigee altitude
462.141 km
Semi-major axis
6,841.156 km
Eccentricity
0.00013
Inclination
53.1592°
RAAN
84.016°
Arg. of periapsis
99.0175°
True anomaly
261.08276°
Mean anomaly
261.0973°
Eccentric anomaly
261.09003°
Mean motion
3.83574 °/min
Orbital period
93.85 mins
BSTAR
0.00036762
Loading maneuver chart data...
Computing Atmospheric mass density...
Loading historical data...
Loading historical data...
Loading historical data...
Loading historical data...
Loading historical data...
Loading historical data...
Loading historical data...

Documentation

Showing up to 5 results
|